Location: Bailleul
(50.3375°N, 2.8513°E)
Time: 09:34:16
(UTC+00:00)

Meteor 2-20 - Pass Details

Date: 16 June 2021
Orbit: 939 x 958 km, 82.5° (Epoch: 27 July)

Event Time Altitude Azimuth Distance (km) Brightness Sun altitude
Rises 20:41:27 0° 185° (S) 3,609 7.1 -5.4°
Reaches altitude 10° 20:43:56 10° 185° (S) 2,665 6.4 -5.7°
Maximum altitude 20:50:02 84° 98° (E) 958 4.5 -6.3°
Drops below altitude 10° 20:56:09 10° 12° (NNE) 2,671 7.4 -6.9°
Sets 20:58:38 0° 11° (NNE) 3,618 8.1 -7.2°
